This is the latest recevied weather packets stored in our database for station/object DW9280. If no packets are shown the sender has not sent any weather packets the latest 1 day(s).
| Time | Temp. | Humidity | Pressure | Rain* | Wind** | Luminosity | Snow |
|---|---|---|---|---|---|---|---|
| 1778093071 | 12.22° C | 70% | 1011.2 hPa | 0 mm | - | 16 W/m² | - |
| 1778092771 | 12.22° C | 71% | 1011.1 hPa | 0 mm | - | 18 W/m² | - |
| 1778090973 | 12.78° C | 71% | 1010.8 hPa | 0 mm | - | 18 W/m² | - |
| 1778090671 | 12.78° C | 70% | 1010.8 hPa | 0 mm | - | 16 W/m² | - |
| 1778089280 | 13.33° C | 64% | 1010.5 hPa | 0 mm | - | 35 W/m² | - |
| 1778088980 | 13.33° C | 64% | 1010.4 hPa | 0 mm | - | 32 W/m² | - |
| 1778088271 | 13.33° C | 63% | 1010.4 hPa | 0 mm | - | 42 W/m² | - |
| 1778087745 | 13.33° C | 61% | 1010.2 hPa | 0 mm | - | 42 W/m² | - |
| 1778087182 | 13.33° C | 61% | 1010.2 hPa | 0 mm | - | 56 W/m² | - |
| 1778086881 | 13.33° C | 60% | 1010.2 hPa | 0 mm | - | 77 W/m² | - |
| 1778086468 | 13.33° C | 60% | 1010.2 hPa | 0 mm | - | 97 W/m² | - |
| 1778086164 | 13.33° C | 61% | 1010.2 hPa | 0 mm | - | 102 W/m² | - |
| 1778082971 | 13.89° C | 58% | 1010.1 hPa | 0 mm | - | 116 W/m² | - |
| 1778081771 | 14.44° C | 56% | 1010.1 hPa | 0 mm | - | 148 W/m² | - |
| 1778081049 | 14.44° C | 55% | 1010.1 hPa | 0 mm | - | 146 W/m² | - |
| 1778080750 | 14.44° C | 53% | 1010 hPa | 0 mm | - | 167 W/m² | - |
| 1778079855 | 14.44° C | 53% | 1010 hPa | 0 mm | - | 251 W/m² | - |
| 1778079550 | 14.44° C | 54% | 1010 hPa | 0 mm | - | 265 W/m² | - |
| 1778078351 | 14.44° C | 55% | 1010 hPa | 0 mm | - | 158 W/m² | - |
| 1778076676 | 14.44° C | 52% | 1009.9 hPa | 0 mm | - | 251 W/m² | - |
| 1778075949 | 14.44° C | 51% | 1009.9 hPa | 0 mm | - | 308 W/m² | - |
| 1778074751 | 14.44° C | 53% | 1009.9 hPa | 0 mm | - | 334 W/m² | - |
| 1778074448 | 14.44° C | 51% | 1009.8 hPa | 0 mm | - | 355 W/m² | - |
| 1778073588 | 14.44° C | 50% | 1009.8 hPa | 0 mm | - | 279 W/m² | - |
| 1778072646 | 14.44° C | 52% | 1009.7 hPa | 0 mm | - | 329 W/m² | - |
* Rain latest hour (hover to see other rain measurements)
** Current wind speed in m/s (hover to see current wind gust speed)